Regional Weather Roundup
Issued by NWS Jackson, KY

Home | Current Version | Previous Version | Text Only | Print | Product List | Glossary Off
Versions: 1 2 3 4 5 6 7 8 9 10 11 12 13 14 15 16 17 18 19 20 21 22 23 24 25 26 27 28 29 30 31 32 33 34 35 36 37 38 39 40 41 42 43 44 45 46 47 48 49 50

000
ASUS43 KJKL 291410
RWRJKL

EAST KENTUCKY HOURLY WEATHER ROUNDUP
NATIONAL WEATHER SERVICE JACKSON KY
1000 AM EDT FRI JUL 29 2016

NOTE: "FAIR" INDICATES FEW OR NO CLOUDS BELOW 12,000 FEET WITH
NO SIGNIFICANT WEATHER AND/OR OBSTRUCTIONS TO VISIBILITY.

* THESE REPORTS ARE NOT UNDER NWS QUALITY CONTROL AND MAY NOT
  REPORT WEATHER SUCH AS PRECIPITATION AND FOG.

KYZ079-080-083-085-087-088-110-112-115-119-120-291500
...EASTERN KENTUCKY...

CITY           SKY/WX    TMP DP  RH WIND       PRES   REMARKS
JACKSON        CLOUDY    72  70  93 CALM      30.01F
LONDON         CLOUDY    72  69  90 S5        30.01S FOG
SOMERSET*      LGT RAIN  73  73 100 SW3       30.00S
MONTICELLO*    CLOUDY   N/A N/A N/A W12       30.01S
WILLIAMSBURG*  MOSUNNY   73  73 100 SE3       30.01F
MIDDLESBORO*   CLOUDY    72  70  93 CALM      30.03S
HARLAN APT*    CLOUDY    73  68  83 CALM      30.04S
PIKE CO APT*   CLOUDY    70  70 100 CALM      30.02S
BIG SANDY APT* CLOUDY    72  71  96 SW3       30.01F
MOREHEAD APT*  LGT RAIN  72  70  94 VRB3      30.01R
ASHLAND*       CLOUDY    75  72  88 S3        29.95S
$$

KYZ035-036-041-042-044-050-067-078-099-291500
...CENTRAL KENTUCKY...

CITY           SKY/WX    TMP DP  RH WIND       PRES   REMARKS
MT STERLING*   CLOUDY    72  72 100 CALM      30.00S
FLEMING/MASON* CLOUDY    74  71  91 S6        29.99S
DANVILLE*      CLOUDY    77  72  83 S5        29.99S
LEXINGTON      CLOUDY    76  71  85 SW7       29.97F
FRANKFORT      PTSUNNY   76  70  82 SW7       29.96R
LOUISVILLE     MOSUNNY   79  70  74 VRB5      29.94S
LEBANON*       PTSUNNY   75  72  88 SW5       29.98R
GLASGOW*       CLOUDY    77  73  87 SW5       29.97S
BOWLING GREEN  CLOUDY    79  72  79 SW6       29.97R
$$

KYZ091>093-OHZ055-061-077-WVZ005-015-034-035-042-291500
...SOUTHERN OHIO/WEST VIRGINIA...

CITY           SKY/WX    TMP DP  RH WIND       PRES   REMARKS
COVINGTON      MOSUNNY   77  71  82 SW5       29.95S
COLUMBUS       CLOUDY    71  70  96 S3        29.95S FOG
DAYTON         MOSUNNY   78  69  73 S5        29.96S
WILMINGTON     CLOUDY    77  72  84 VRB3      29.96S
HUNTINGTON     CLOUDY    74  71  91 SW3       29.97F
CHARLESTON     CLOUDY    73  70  90 CALM      29.99R
PINEVILLE*     CLOUDY    73  67  84 MISG      30.08S
BECKLEY        CLOUDY    70  65  84 W6        30.06S
BLUEFIELD      CLOUDY    67  65  93 W7        30.09R
LOGAN CO APT*  CLOUDY    72  70  94 CALM      30.02R
$$

VAZ002-007-008-TNZ017-027-036-066-071-291500
...SOUTHWEST VIRGINIA/EAST TENNESSEE...

CITY           SKY/WX    TMP DP  RH WIND       PRES   REMARKS
WISE*            N/A     72  68  88 W5        30.09S
JONESVILLE*    PTSUNNY   72  68  88 CALM      30.06F
ABINGDON*      CLOUDY    74  69  87 W7        30.07S
BRISTOL        CLOUDY    73  68  84 SW7       30.05S
MORRISTOWN*    PTSUNNY   77  72  83 SW6       30.03S
SEVIERVILLE*   CLOUDY    79  70  73 SW5       30.02R
KNOXVILLE      CLOUDY    76  71  85 S9        30.00F
OAK RIDGE      CLOUDY    77  72  84 VRB3      30.02F
CROSSVILLE     MOSUNNY   73  69  87 VRB3      30.05F
NASHVILLE      CLOUDY    80  73  79 S8        29.99R
$$

...KEY TO REMARKS...
VSB - VISIBILITY IN MILES
WCI - WIND CHILL INDEX
HX  - HEAT INDEX

$$



USA.gov is the U.S. government's official web portal to all federal, state and local government web resources and services.